EW2692 Weather Reports


Display with metric or nautical units.
time (UTC)temp
F
wind
direction
speed
MPH
gust
MPH
rain 1hr
in
rain 24hr
in
rain mn
in
humidity
%
barometer
mb
20260905220013 83 20 2.0 7.0 0.00 0.00 0.00 61 940.2
20260905214510 83 70 2.0 7.0 0.00 0.00 0.00 62 940.1
20260905213010 83 38 2.0 6.0 0.00 0.00 0.00 61 939.9
20260905211507 82 73 2.0 6.0 0.00 0.00 0.00 64 940.0
20260905210007 81 12 1.0 6.0 0.00 0.00 0.00 65 940.2
20260905204507 81 41 1.0 4.0 0.00 0.00 0.00 66 940.2
20260905203006 81 30 1.0 4.0 0.00 0.00 0.00 67 940.1
20260905201505 81 19 0.0 6.0 0.00 0.00 0.00 66 940.1
20260905200005 81 85 0.0 3.0 0.00 0.00 0.00 66 940.1
20260905194504 82 86 1.0 4.0 0.00 0.00 0.00 66 940.0
20260905193003 82 88 1.0 5.0 0.00 0.00 0.00 65 940.0
20260905191504 83 76 1.0 7.0 0.00 0.00 0.00 64 939.9
20260905190008 83 103 0.0 4.0 0.00 0.00 0.00 63 939.8
20260905184504 84 113 1.0 7.0 0.00 0.00 0.00 62 939.9
20260905183059 82 72 1.0 5.0 0.00 0.00 0.00 64 939.9
20260905181559 81 70 1.0 5.0 0.00 0.00 0.00 65 940.2
20260905180113 81 76 0.0 3.0 0.00 0.00 0.00 66 940.3
20260905174557 81 76 0.0 2.0 0.00 0.00 0.00 65 940.5
20260905173113 82 76 1.0 5.0 0.00 0.00 0.00 63 940.4
20260905171556 82 105 3.0 8.0 0.00 0.00 0.00 63 940.2
20260905170051 81 50 1.0 6.0 0.00 0.00 0.00 64 940.2
20260905164555 81 68 2.0 5.0 0.00 0.00 0.00 65 940.2
20260905163047 80 103 2.0 10.0 0.00 0.00 0.00 66 939.8
20260905161545 79 73 2.0 7.0 0.00 0.00 0.00 68 939.6
20260905160053 79 76 1.0 7.0 0.00 0.00 0.00 68 939.9
20260905154549 78 117 3.0 11.0 0.00 0.00 0.00 70 939.8
20260905153037 77 86 2.0 7.0 0.00 0.00 0.00 71 939.7
20260905151533 76 126 2.0 8.0 0.00 0.00 0.00 73 939.8
20260905150028 75 88 2.0 8.0 0.00 0.00 0.00 75 939.3
20260905144529 75 103 1.0 3.0 0.00 0.00 0.00 75 939.7
20260905143022 72 80 0.0 2.0 0.00 0.00 0.00 81 939.9
20260905141519 69 44 0.0 1.0 0.00 0.00 0.00 87 940.0
20260905140021 67 44 0.0 1.0 0.00 0.00 0.00 90 939.9
20260905134516 65 44 0.0 0.0 0.00 0.00 0.00 93 939.6
20260905133023 64 44 0.0 1.0 0.00 0.00 0.00 93 939.6
20260905131513 64 45 0.0 1.0 0.00 0.00 0.00 93 939.4
20260905130012 64 49 0.0 0.0 0.00 0.00 0.00 93 939.3
20260905124511 63 49 0.0 0.0 0.00 0.01 0.00 93 939.0
20260905123007 64 49 0.0 0.0 0.00 0.01 0.00 92 938.9
20260905121506 64 49 0.0 1.0 0.00 0.01 0.00 92 938.6
20260905120007 65 49 0.0 1.0 0.00 0.01 0.00 92 938.4
20260905114503 65 52 0.0 2.0 0.00 0.01 0.00 92 938.2
20260905113100 65 55 0.0 1.0 0.00 0.01 0.00 91 937.9
20260905111651 65 55 0.0 2.0 0.00 0.01 0.00 91 937.8
20260905110054 65 54 0.0 2.0 0.00 0.01 0.00 91 937.5
20260905104552 65 52 0.0 2.0 0.00 0.01 0.00 90 937.1
20260905103056 65 49 0.0 2.0 0.00 0.01 0.00 91 937.0
20260905101549 65 44 0.0 2.0 0.00 0.01 0.00 90 936.7
20260905100053 65 51 0.0 2.0 0.00 0.01 0.00 90 936.7
20260905094546 66 40 0.0 3.0 0.00 0.01 0.00 89 936.8
20260905093053 66 32 0.0 6.0 0.00 0.01 0.00 89 936.7
20260905091542 66 19 0.0 3.0 0.00 0.01 0.00 88 936.4
20260905090041 66 22 0.0 3.0 0.00 0.01 0.00 88 936.5
20260905084540 66 26 0.0 3.0 0.00 0.01 0.00 88 936.5
20260905083037 67 38 0.0 3.0 0.00 0.01 0.00 87 936.4
20260905081536 67 35 0.0 5.0 0.00 0.01 0.00 87 936.3
20260905080036 67 30 0.0 4.0 0.00 0.01 0.00 87 936.3
20260905074533 67 36 0.0 2.0 0.00 0.01 0.00 86 936.2
20260905073036 68 40 0.0 3.0 0.00 0.01 0.00 85 936.2
20260905071529 68 25 0.0 3.0 0.00 0.01 0.00 84 936.4
20260905070045 68 19 0.0 4.0 0.00 0.01 0.00 84 936.3
20260905064538 68 38 0.0 3.0 0.00 0.01 0.00 83 936.3
20260905063023 69 19 1.0 4.0 0.00 0.01 0.00 82 936.3
20260905061520 69 51 0.0 3.0 0.00 0.01 0.00 79 936.3
20260905060021 70 67 0.0 4.0 0.00 0.01 0.00 77 936.2
20260905054528 71 27 0.0 2.0 0.00 0.01 0.01 74 936.1
20260905053015 72 40 0.0 2.0 0.00 0.01 0.01 70 936.1
20260905051523 73 56 0.0 3.0 0.00 0.01 0.01 69 936.1
20260905050015 75 60 0.0 3.0 0.00 0.01 0.01 63 935.9
20260905044513 75 65 1.0 4.0 0.00 0.01 0.01 61 935.7
20260905043013 76 63 1.0 4.0 0.00 0.01 0.01 59 935.8
20260905041513 78 66 2.0 6.0 0.00 0.01 0.01 55 935.8
20260905040018 79 112 2.0 12.0 0.00 0.01 0.01 53 935.8
20260905034524 78 107 3.0 8.0 0.00 0.01 0.01 55 935.8
20260905033019 77 90 2.0 9.0 0.00 0.01 0.01 58 935.9
20260905031510 76 84 1.0 6.0 0.00 0.01 0.01 63 935.8
20260905030010 77 64 2.0 5.0 0.00 0.01 0.01 61 935.9
20260905024511 78 69 2.0 6.0 0.00 0.01 0.01 58 935.9
20260905023008 79 80 2.0 6.0 0.00 0.01 0.01 53 935.8
20260905021515 79 80 2.0 6.0 0.00 0.01 0.01 51 935.7
20260905020013 80 66 0.0 4.0 0.00 0.01 0.01 50 935.5
20260905014506 81 90 1.0 8.0 0.00 0.01 0.01 48 935.3
20260905013006 83 72 1.0 5.0 0.00 0.01 0.01 47 935.2
20260905011505 84 70 1.0 4.0 0.00 0.01 0.01 45 935.0
20260905010006 86 66 1.0 5.0 0.00 0.01 0.01 43 934.8
20260905004504 88 82 0.0 4.0 0.00 0.01 0.01 41 934.8
20260905003006 89 65 1.0 4.0 0.00 0.01 0.01 40 934.9
20260905001502 90 76 1.0 4.0 0.00 0.01 0.01 37 934.9
20260905000001 91 111 2.0 9.0 0.00 0.01 0.01 36 935.0
20260904234607 91 120 3.0 9.0 0.00 0.01 0.01 35 935.0
20260904233059 92 123 3.0 8.0 0.00 0.01 0.01 35 935.0
20260904231602 92 118 3.0 10.0 0.00 0.01 0.01 34 935.1
20260904230057 92 105 2.0 9.0 0.00 0.01 0.01 34 935.2
20260904224556 92 82 1.0 7.0 0.00 0.01 0.01 34 935.3
20260904223057 93 88 1.0 6.0 0.00 0.01 0.01 34 935.2
20260904221558 92 113 2.0 9.0 0.00 0.01 0.01 34 935.2